Regional Weather Roundup
Issued by NWS

Home | Current Version | Previous Version | Graphics & Text | Print | Product List | Glossary On
Versions: 1 2 3 4 5 6 7 8 9 10 11 12 13 14 15 16 17 18 19 20 21 22 23 24 25 26 27 28 29 30 31 32 33 34 35 36 37 38 39 40 41 42 43 44 45 46 47 48 49 50
000
ASUS43 KDMX 280907
RWRIA

WEATHER ROUNDUP FOR IOWA
NATIONAL WEATHER SERVICE DES MOINES IA
400 AM CDT MON JUL 28 2014

NOTE: "FAIR" INDICATES FEW OR NO CLOUDS BELOW 12,000 FEET WITH NO
SIGNIFICANT WEATHER AND/OR OBSTRUCTIONS TO VISIBILITY.

* - THESE STATIONS ARE NOT NWS STATIONS...THUS NOT UNDER NWS
QUALITY CONTROL.  THEY ALSO DO NOT REPORT WEATHER SUCH
AS PRECIPITATION OR FOG.

IAZ001>003-012>014-020>022-031>034-043>046-281000-
   NORTHWEST IOWA

CITY           SKY/WX    TMP DP  RH WIND       PRES   REMARKS
CARROLL *      CLEAR     59  55  88 N10       30.17S
CHEROKEE *     CLEAR     57  55  94 N6        30.20S
DENISON *      CLEAR     57  55  94 NW5       30.18S
LE MARS *      CLEAR     57  55  94 CALM      30.23S
ORANGE CITY *  CLEAR     57  54  88 NW8       30.22S
SHELDON *      MOCLDY    54  54 100 CALM      30.21R
SIOUX CITY     CLEAR     59  56  89 N6        30.22S
SPENCER        CLOUDY    57  55  93 NW7       30.19S
STORM LAKE *   CLEAR     55  55 100 NW9       30.20S
$$

IAZ055>058-069>071-079>083-090>094-281000-
   SOUTHWEST IOWA

CITY           SKY/WX    TMP DP  RH WIND       PRES   REMARKS
ATLANTIC *     CLEAR     57  55  94 CALM      30.18R
AUDUBON *      CLEAR     59  55  88 NW7       30.19R
CLARINDA *     CLEAR     59  57  94 N6        30.19S
COUNCIL BLFS * MOCLDY    59  59 100 N7        30.19S
CRESTON *      CLEAR     57  55  94 W7        30.16S
HARLAN  *      CLEAR     57  55  94 NW6       30.23R
LAMONI         CLEAR     58  56  93 NW7       30.14S
RED OAK *      CLEAR     61  57  88 N8        30.19R
SHENANDOAH *   CLEAR     59  57  94 CALM      30.20R
$$

IAZ047>049-059>061-072>074-084-281000-
   CENTRAL IOWA

CITY           SKY/WX    TMP DP  RH WIND       PRES   REMARKS
AMES           MOCLDY    62  59  90 N9        30.14R
ANKENY *       MOCLDY    63  59  88 NW10G18   30.13S
CHARITON *     CLEAR     61  59  94 N12       30.12R
DES MOINES     MOCLDY    63  58  83 N10       30.12S
GRINNELL*      CLEAR     61  59  94 N7        30.11S
KNOXVILLE *    CLOUDY    64  59  82 NW10      30.10S
MARSHALLTOWN   CLEAR     60  57  89 N7        30.12R
PELLA *        CLEAR     61  59  94 NW8       30.12R
PERRY *          N/A     59  57  94 NW7       30.16S
$$

IAZ004>006-015-016-023>025-035-036-281000-
   NORTH CENTRAL IOWA

CITY           SKY/WX    TMP DP  RH WIND       PRES   REMARKS
ALGONA *       CLOUDY    61  59  94 NW7       30.18R
CLARION *      CLEAR     59  59 100 N6        30.15S
ESTHERVILLE    CLOUDY    58  57  97 NW6       30.18R
FORT DODGE *   CLEAR     59  55  88 N5        30.17R
MASON CITY     PTCLDY    55  54  96 N7        30.17R
FOREST CITY *  CLOUDY    61  57  88 N6        30.16S
IOWA FALLS *     N/A     59  57  94 N6        30.15R
$$

IAZ007>011-017>019-026>030-037>042-050>054-066-281000-
   NORTHEAST IOWA

CITY           SKY/WX    TMP DP  RH WIND       PRES   REMARKS
CEDAR RAPIDS   PTCLDY    61  57  87 N9        30.07R
CHARLES CITY * CLOUDY    59  55  88 N8        30.14S
CLINTON *      MOCLDY    61  55  82 N13       30.07R
DECORAH *      CLEAR     55  54  94 N6G15     30.11F
DUBUQUE        CLEAR     58  54  86 N9        30.07R
MONTICELLO *   CLEAR     61  55  82 N6        30.07R
OELWEIN *      CLEAR     57  55  94 N10       30.12R
WATERLOO       CLEAR     58  55  90 N8        30.11R
$$

IAZ064-065-067-068-078-281000-
   EAST CENTRAL IOWA

CITY           SKY/WX    TMP DP  RH WIND       PRES   REMARKS
DAVENPORT      MOCLDY    63  57  81 N16       30.04R
IOWA CITY      MOCLDY    65  59  81 N8        30.08R
MT. PLEASANT * CLEAR     63  61  94 NW10      30.06R
MUSCATINE *    PTCLDY    63  59  88 NW7       30.05R
QUAD CITIES    CLOUDY    66  59  78 N10G17    30.03R
$$

IAZ062-063-075>077-085>089-095>099-281000-
   SOUTHEAST IOWA

CITY           SKY/WX    TMP DP  RH WIND       PRES   REMARKS
BURLINGTON     CLEAR     63  61  93 N10       30.04R
FAIRFIELD *    CLEAR     63  59  88 N7        30.08R
FORT MADISON * CLEAR     63  63 100 NW5       30.06R
KEOKUK *       CLEAR     63  61  94 N7        30.04R
OSKALOOSA *      N/A     61  59  94 N7        30.10R
CENTERVILLE *  CLEAR     61  59  94 NW8       30.11S
OTTUMWA        CLEAR     61  59  93 NW10      30.09R
WASHINGTON *   PTCLDY    63  61  94 NW8       30.07R
$$

ABBREVIATIONS USED IN REMARKS
   TC - TEMPERATURES IN CELSIUS
  WCI - WIND CHILL INDEX
   HX - HEAT INDEX
  VSB - VISIBILITY
$$




USA.gov is the U.S. government's official web portal to all federal, state and local government web resources and services.